period_start,C,m1,H,J0,J1,J2,J3,J4,J5,JA,JB,JC,JD,JJ,JK,JN,#
2018-08-02 00:04:27,-0.01,0.15,0.00,26.32,30.22,33.18,13.81,46.05,1013.83,2015.07,3355.98,3032.99,3475.00,600.01,587.83,13.22,0000 0000 0000 0000 000000
2018-08-02 00:09:29,0.03,0.15,0.00,26.32,30.22,33.17,13.76,46.04,1013.91,2015.02,3355.52,3032.73,3474.75,599.78,587.65,13.27,0000 0000 0000 0000 000000
2018-08-02 00:14:30,0.04,0.16,0.00,26.32,30.22,33.16,13.74,46.00,1014.07,2015.04,3354.22,3032.02,3474.02,599.98,587.94,13.32,0000 0000 0000 0000 000000
2018-08-02 00:19:32,0.00,0.16,0.00,26.31,30.22,33.19,13.74,46.01,1014.13,2015.03,3354.03,3032.00,3473.98,599.83,587.85,13.37,0000 0000 0000 0000 000000
2018-08-02 00:24:33,0.00,0.16,0.00,26.31,30.22,33.18,13.73,46.04,1014.14,2015.01,3354.02,3032.00,3473.95,600.03,588.00,13.42,0000 0000 0000 0000 000000
2018-08-02 00:29:34,0.01,0.16,0.00,26.32,30.22,33.17,13.78,46.05,1014.15,2015.03,3353.99,3032.00,3473.59,600.03,587.90,13.47,0000 0000 0000 0000 000000
2018-08-02 00:34:35,0.01,0.16,0.00,26.32,30.22,33.18,13.73,46.01,1014.17,2015.06,3353.97,3031.99,3473.33,600.03,587.95,13.52,0000 0000 0000 0000 000000
2018-08-02 00:39:36,0.00,0.16,0.00,26.33,30.22,33.17,13.69,46.06,1014.16,2015.06,3353.98,3031.99,3473.26,599.66,587.71,13.57,0000 0000 0000 0000 000000
2018-08-02 00:44:38,0.00,0.16,0.00,26.32,30.22,33.17,13.78,45.94,1014.16,2015.08,3353.95,3031.99,3473.13,599.96,588.11,13.62,0000 0000 0000 0000 000000
2018-08-02 00:49:39,-0.00,0.16,0.00,26.32,30.22,33.17,13.79,45.93,1014.17,2015.10,3353.98,3031.99,3473.11,600.25,588.23,13.67,0000 0000 0000 0000 000000
2018-08-02 00:54:40,0.00,0.16,0.00,26.33,30.22,33.18,13.77,45.92,1014.17,2015.10,3353.96,3031.99,3473.08,600.08,587.94,13.72,0000 0000 0000 0000 000000
2018-08-02 00:59:42,0.00,0.16,0.00,26.34,30.22,33.14,13.79,45.79,1014.17,2015.12,3353.70,3031.99,3473.04,600.14,588.09,13.77,0000 0000 0000 0000 000000
2018-08-02 01:04:43,0.01,0.16,0.00,26.33,30.22,33.15,13.73,45.91,1014.18,2015.10,3353.42,3031.99,3473.00,599.90,587.87,13.82,0000 0000 0000 0000 000000
2018-08-02 01:09:44,0.00,0.16,0.00,26.32,30.22,33.16,13.67,45.83,1014.18,2015.10,3353.19,3031.98,3473.00,599.54,587.63,13.87,0000 0000 0000 0000 000000
2018-08-02 01:14:46,0.00,0.16,0.00,26.35,30.22,33.18,13.77,45.93,1014.18,2015.12,3353.04,3031.98,3473.00,600.22,588.11,13.92,0000 0000 0000 0000 000000
2018-08-02 01:19:47,-0.01,0.16,0.00,26.32,30.22,33.19,13.77,46.48,1014.19,2015.07,3353.02,3031.97,3473.00,599.94,587.91,13.97,0000 0000 0000 0000 000000
2018-08-02 01:24:48,0.01,0.16,0.00,26.29,30.22,33.22,13.72,46.53,1014.19,2015.15,3353.00,3031.96,3472.99,600.21,588.32,14.02,0000 0000 0000 0000 000000
2018-08-02 01:29:49,0.00,0.16,0.00,26.24,30.21,33.27,13.80,46.65,1014.29,2015.12,3353.00,3031.93,3472.99,600.18,588.38,14.07,0000 0000 0000 0000 000000
2018-08-02 01:34:51,0.00,0.16,0.00,26.19,30.20,33.27,13.75,46.67,1014.58,2015.15,3352.99,3031.91,3472.96,599.73,588.31,14.12,0000 0000 0000 0000 000000
2018-08-02 01:39:52,0.00,0.16,0.00,26.13,30.19,33.25,13.75,46.54,1014.47,2015.18,3352.99,3031.96,3472.98,599.70,588.24,14.17,0000 0000 0000 0000 000000
2018-08-02 01:44:53,0.01,0.16,0.00,26.07,30.17,33.25,13.82,46.48,1014.38,2015.33,3352.99,3031.97,3472.98,600.21,588.82,14.22,0000 0000 0000 0000 000000
2018-08-02 01:49:55,0.03,0.16,0.00,26.01,30.16,33.23,13.78,46.47,1014.51,2015.55,3352.99,3031.99,3472.99,599.36,588.36,14.27,0000 0000 0000 0000 000000
2018-08-02 01:54:56,0.02,0.16,0.00,25.95,30.14,33.18,13.81,46.32,1014.59,2015.79,3352.99,3031.99,3472.99,599.96,588.96,14.32,0000 0000 0000 0000 000000
2018-08-02 01:59:57,0.01,0.16,0.00,25.88,30.11,33.15,13.82,46.24,1014.62,2015.92,3352.99,3031.99,3472.99,599.87,589.02,14.37,0000 0000 0000 0000 000000
2018-08-02 02:04:59,0.00,0.16,0.00,25.83,30.09,33.09,13.83,46.23,1014.65,2015.96,3353.00,3032.01,3473.01,600.00,589.15,14.42,0000 0000 0000 0000 000000
2018-08-02 02:10:00,-0.01,0.16,0.00,25.81,30.06,33.06,13.76,46.25,1014.66,2015.99,3353.04,3032.12,3473.16,599.88,589.15,14.47,0000 0000 0000 0000 000000
2018-08-02 02:15:01,-0.00,0.16,0.00,25.80,30.03,33.01,13.78,46.24,1014.66,2015.99,3353.05,3032.36,3473.39,599.84,589.34,14.52,0000 0000 0000 0000 000000
2018-08-02 02:20:02,-0.02,0.16,0.00,25.79,30.01,32.96,13.77,46.13,1014.66,2015.99,3353.29,3032.83,3473.84,599.88,589.21,14.57,0000 0000 0000 0000 000000
2018-08-02 02:25:03,0.00,0.16,0.00,25.81,29.98,32.93,13.81,46.22,1014.66,2016.02,3353.58,3032.97,3473.97,599.93,589.20,14.62,0000 0000 0000 0000 000000
2018-08-02 02:30:05,0.01,0.16,0.00,25.82,29.96,32.92,13.71,46.27,1014.66,2016.07,3353.09,3032.95,3473.94,599.31,588.66,14.67,0000 0000 0000 0000 000000
2018-08-02 02:35:06,0.01,0.16,0.00,25.86,29.94,32.89,13.77,46.11,1014.66,2016.17,3353.00,3032.92,3473.80,600.14,589.26,14.72,0000 0000 0000 0000 000000
2018-08-02 02:40:07,0.04,0.16,0.00,25.87,29.92,32.87,13.78,46.17,1014.66,2016.61,3353.00,3032.94,3473.74,600.07,589.26,14.77,0000 0000 0000 0000 000000
2018-08-02 02:45:09,0.00,0.16,0.00,25.89,29.90,32.85,13.78,46.06,1014.67,2016.58,3352.93,3032.84,3473.29,600.09,589.24,14.82,0000 0000 0000 0000 000000
2018-08-02 02:50:10,0.02,0.16,0.00,25.92,29.89,32.82,13.73,46.06,1014.68,2016.85,3352.84,3032.95,3473.37,599.53,588.60,14.87,0000 0000 0000 0000 000000
2018-08-02 02:55:11,0.01,0.16,0.00,25.94,29.87,32.79,13.72,46.00,1014.67,2016.95,3352.75,3032.97,3473.62,599.96,588.92,14.92,0000 0000 0000 0000 000000
2018-08-02 03:00:12,0.01,0.16,0.00,25.96,29.87,32.77,13.79,46.05,1014.68,2016.97,3352.47,3032.96,3473.45,600.03,589.06,14.97,0000 0000 0000 0000 000000
2018-08-02 03:05:14,0.00,0.16,0.00,25.99,29.86,32.78,13.78,45.97,1014.69,2016.98,3352.37,3032.98,3473.49,600.03,588.90,15.02,0000 0000 0000 0000 000000
2018-08-02 03:10:15,0.00,0.17,0.00,26.00,29.85,32.72,13.75,46.09,1014.70,2016.99,3352.33,3032.99,3473.52,599.74,588.66,15.08,0000 0000 0000 0000 000000
2018-08-02 03:15:16,0.00,0.17,0.00,26.03,29.85,32.74,13.81,46.02,1014.69,2016.99,3352.11,3032.98,3473.29,600.20,589.10,15.13,0000 0000 0000 0000 000000
2018-08-02 03:20:18,0.00,0.17,0.00,26.05,29.85,32.74,13.72,46.05,1014.68,2016.99,3352.01,3032.98,3473.13,600.17,589.01,15.18,0000 0000 0000 0000 000000
2018-08-02 03:25:19,0.00,0.17,0.00,26.06,29.85,32.72,13.74,46.07,1014.70,2016.99,3352.00,3032.98,3473.07,599.84,588.66,15.23,0000 0000 0000 0000 000000
2018-08-02 03:30:20,0.00,0.17,0.00,26.09,29.85,32.72,13.82,46.09,1014.82,2016.99,3352.00,3032.95,3473.01,600.36,589.17,15.28,0000 0000 0000 0000 000000
2018-08-02 03:35:22,0.00,0.17,0.00,26.10,29.85,32.72,13.71,46.13,1015.00,2016.99,3351.99,3032.90,3473.00,599.93,588.97,15.33,0000 0000 0000 0000 000000
2018-08-02 03:40:23,0.00,0.17,0.00,26.12,29.85,32.64,13.80,46.20,1015.09,2016.99,3351.98,3032.86,3473.00,599.92,588.91,15.38,0000 0000 0000 0000 000000
2018-08-02 03:45:24,0.01,0.17,0.00,26.13,29.87,32.67,13.77,46.12,1015.14,2016.99,3351.95,3032.65,3473.00,599.64,588.58,15.43,0000 0000 0000 0000 000000
2018-08-02 03:50:26,0.00,0.17,0.00,26.17,29.87,32.65,13.72,46.06,1015.15,2016.99,3351.92,3032.66,3473.00,599.96,588.90,15.48,0000 0000 0000 0000 000000
2018-08-02 03:55:27,-0.00,0.17,0.00,26.18,29.87,32.66,13.74,46.07,1015.15,2016.99,3351.82,3032.58,3472.99,599.99,588.73,15.53,0000 0000 0000 0000 000000
2018-08-02 04:00:28,0.01,0.17,0.00,26.20,29.88,32.68,13.70,46.05,1015.15,2016.99,3351.37,3032.31,3472.97,599.91,588.74,15.58,0000 0000 0000 0000 000000
2018-08-02 04:05:30,0.01,0.17,0.00,26.22,29.90,32.65,13.77,46.06,1015.15,2016.97,3351.12,3032.12,3472.76,599.97,588.93,15.63,0000 0000 0000 0000 000000
2018-08-02 04:10:31,-0.00,0.17,0.00,26.23,29.90,32.61,13.70,46.06,1015.16,2016.96,3351.01,3032.03,3472.44,599.82,588.62,15.68,0000 0000 0000 0000 000000
2018-08-02 04:15:33,0.00,0.17,0.00,26.25,29.91,32.60,13.73,46.04,1015.18,2016.95,3351.00,3032.01,3472.11,599.94,588.63,15.73,0000 0000 0000 0000 000000
2018-08-02 04:20:34,-0.01,0.17,0.00,26.26,29.92,32.58,13.69,46.02,1015.20,2016.88,3351.00,3032.00,3472.02,599.91,588.61,15.78,0000 0000 0000 0000 000000
2018-08-02 04:25:35,-0.01,0.17,0.00,26.28,29.92,32.58,13.71,46.09,1015.25,2016.78,3350.99,3032.00,3472.00,599.79,588.43,15.83,0000 0000 0000 0000 000000
2018-08-02 04:30:36,0.00,0.17,0.00,26.30,29.94,32.58,13.79,46.13,1015.36,2016.76,3350.95,3032.00,3472.00,600.08,588.86,15.88,0000 0000 0000 0000 000000
2018-08-02 04:35:38,-0.00,0.17,0.00,26.32,29.95,32.60,13.73,46.13,1015.31,2016.70,3350.89,3032.00,3471.99,600.18,588.82,15.93,0000 0000 0000 0000 000000
2018-08-02 04:40:39,0.01,0.17,0.00,26.32,29.96,32.61,13.71,46.08,1015.53,2016.83,3350.81,3032.00,3471.98,599.93,588.72,15.98,0000 0000 0000 0000 000000
2018-08-02 04:45:41,-0.01,0.17,0.00,26.36,29.97,32.65,13.76,46.10,1015.54,2016.67,3350.52,3032.00,3471.98,600.18,588.85,16.03,0000 0000 0000 0000 000000
2018-08-02 04:50:42,-0.00,0.17,0.00,26.37,29.98,32.63,13.78,46.03,1015.60,2016.51,3350.17,3032.00,3471.96,600.18,588.76,16.08,0000 0000 0000 0000 000000
2018-08-02 04:55:43,-0.01,0.17,0.00,26.37,30.00,32.60,13.72,46.07,1015.64,2016.40,3350.04,3031.97,3471.65,600.03,588.79,16.13,0000 0000 0000 0000 000000
2018-08-02 05:00:44,-0.01,0.17,0.00,26.38,30.00,32.64,13.73,46.06,1015.64,2016.07,3350.00,3031.83,3471.06,599.92,588.59,16.18,0000 0000 0000 0000 000000
2018-08-02 05:05:45,0.01,0.17,0.00,26.40,30.02,32.66,13.75,46.08,1015.64,2016.05,3349.99,3031.50,3471.01,600.06,588.68,16.23,0000 0000 0000 0000 000000
2018-08-02 05:10:46,0.01,0.17,0.00,26.41,30.02,32.68,13.69,46.08,1015.64,2016.02,3349.88,3031.06,3471.00,600.09,588.76,16.28,0000 0000 0000 0000 000000
2018-08-02 05:15:48,0.01,0.17,0.00,26.44,30.05,32.66,13.74,46.08,1015.65,2016.00,3349.49,3031.02,3470.98,599.91,588.70,16.33,0000 0000 0000 0000 000000
2018-08-02 05:20:49,0.00,0.17,0.00,26.45,30.05,32.69,13.74,46.09,1015.65,2016.00,3349.30,3031.01,3470.94,599.85,588.47,16.38,0000 0000 0000 0000 000000
2018-08-02 05:25:50,0.00,0.17,0.00,26.47,30.07,32.69,13.64,46.10,1015.65,2016.00,3349.07,3031.00,3470.73,599.86,588.54,16.43,0000 0000 0000 0000 000000
2018-08-02 05:30:51,0.01,0.17,0.00,26.48,30.08,32.69,13.77,46.14,1015.66,2016.00,3349.01,3031.00,3470.17,600.12,588.62,16.48,0000 0000 0000 0000 000000
2018-08-02 05:35:52,0.00,0.17,0.00,26.49,30.10,32.70,13.73,46.08,1015.66,2016.00,3349.00,3031.00,3470.04,600.00,588.70,16.53,0000 0000 0000 0000 000000
2018-08-02 05:40:54,0.00,0.17,0.00,26.52,30.11,32.70,13.75,46.18,1015.67,2016.00,3348.99,3030.93,3470.00,600.20,588.64,16.58,0000 0000 0000 0000 000000
2018-08-02 05:45:55,0.00,0.17,0.00,26.53,30.12,32.70,13.74,46.02,1015.75,2015.99,3348.91,3030.66,3469.99,600.10,588.57,16.63,0000 0000 0000 0000 000000
2018-08-02 05:50:56,0.02,0.17,0.00,26.55,30.14,32.72,13.70,46.13,1015.82,2015.98,3348.52,3030.31,3469.97,600.03,588.58,16.68,0000 0000 0000 0000 000000
2018-08-02 05:55:58,0.01,0.17,0.00,26.57,30.15,32.74,13.74,46.20,1015.97,2015.98,3348.13,3030.06,3469.81,599.94,588.54,16.73,0000 0000 0000 0000 000000
2018-08-02 06:00:59,0.01,0.17,0.00,26.59,30.17,32.75,13.70,46.16,1015.98,2015.93,3348.01,3030.02,3469.26,599.97,588.33,16.78,0000 0000 0000 0000 000000
2018-08-02 06:06:01,-0.01,0.17,0.00,26.60,30.19,32.77,13.72,46.17,1016.07,2015.81,3348.00,3030.00,3469.03,599.82,588.55,16.83,0000 0000 0000 0000 000000
2018-08-02 06:11:02,-0.01,0.17,0.00,26.63,30.20,32.77,13.73,46.11,1016.10,2015.71,3347.99,3030.00,3469.00,600.04,588.47,16.88,0000 0000 0000 0000 000000
2018-08-02 06:16:03,-0.04,0.17,0.00,26.66,30.22,32.78,13.68,46.08,1016.13,2015.29,3347.90,3029.98,3468.99,599.92,588.31,16.93,0000 0000 0000 0000 000000
2018-08-02 06:21:04,0.01,0.17,0.00,26.67,30.24,32.78,13.68,46.04,1016.13,2015.06,3347.28,3029.86,3468.80,599.97,588.40,16.98,0000 0000 0000 0000 000000
2018-08-02 06:26:06,0.02,0.17,0.00,26.70,30.25,32.82,13.66,46.03,1016.14,2015.04,3347.09,3029.63,3468.40,599.88,588.34,17.03,0000 0000 0000 0000 000000
2018-08-02 06:31:07,0.01,0.17,0.00,26.72,30.27,32.84,13.68,46.04,1016.13,2015.01,3347.00,3029.12,3468.05,599.98,588.38,17.08,0000 0000 0000 0000 000000
2018-08-02 06:36:09,0.00,0.17,0.00,26.73,30.29,32.85,13.75,46.11,1016.14,2015.00,3347.00,3029.03,3468.00,599.94,588.34,17.13,0000 0000 0000 0000 000000
2018-08-02 06:41:10,0.00,0.17,0.00,26.76,30.31,32.87,13.68,46.11,1016.19,2015.00,3346.98,3029.00,3468.00,599.81,588.20,17.18,0000 0000 0000 0000 000000
2018-08-02 06:46:11,0.00,0.17,0.00,26.79,30.32,32.90,13.72,46.03,1016.18,2015.00,3346.87,3029.00,3467.98,600.01,588.43,17.23,0000 0000 0000 0000 000000
2018-08-02 06:51:13,0.05,0.17,0.00,26.81,30.35,32.90,13.70,46.09,1016.16,2014.98,3345.85,3028.68,3467.26,600.15,588.31,17.28,0000 0000 0000 0000 000000
2018-08-02 06:56:14,0.01,0.17,0.00,26.85,30.36,32.92,13.72,46.08,1016.15,2014.98,3345.03,3028.05,3467.00,599.92,588.06,17.33,0000 0000 0000 0000 000000
2018-08-02 07:01:15,-0.00,0.17,0.00,26.87,30.38,32.92,13.69,45.97,1016.22,2014.93,3345.00,3028.01,3466.95,599.91,587.99,17.38,0000 0000 0000 0000 000000
2018-08-02 07:06:16,-0.02,0.17,0.00,26.87,30.40,32.95,13.73,46.06,1016.54,2014.64,3344.96,3028.00,3466.35,600.15,588.47,17.43,0000 0000 0000 0000 000000
2018-08-02 07:11:17,0.01,0.17,0.00,26.91,30.42,32.98,13.77,46.03,1016.60,2014.58,3344.82,3027.99,3466.11,600.51,588.67,17.48,0000 0000 0000 0000 000000
2018-08-02 07:16:19,-0.02,0.17,0.00,26.95,30.44,32.98,13.67,45.95,1016.62,2014.30,3344.34,3027.98,3466.03,599.67,587.92,17.53,0000 0000 0000 0000 000000
2018-08-02 07:21:20,-0.01,0.17,0.00,26.97,30.46,32.98,13.74,45.96,1016.62,2014.12,3344.06,3027.96,3466.00,600.02,588.15,17.58,0000 0000 0000 0000 000000
2018-08-02 07:26:21,0.01,0.17,0.00,26.97,30.47,33.02,13.70,46.08,1016.62,2014.04,3344.00,3027.67,3466.00,599.86,588.10,17.63,0000 0000 0000 0000 000000
2018-08-02 07:31:23,0.01,0.17,0.00,27.01,30.50,33.04,13.62,46.01,1016.63,2014.02,3343.99,3027.20,3465.83,599.35,587.51,17.68,0000 0000 0000 0000 000000
2018-08-02 07:36:24,0.01,0.17,0.00,27.03,30.51,33.06,13.64,45.93,1016.64,2014.00,3343.88,3027.02,3465.28,599.87,587.91,17.73,0000 0000 0000 0000 000000
2018-08-02 07:41:26,0.01,0.17,0.00,27.05,30.53,33.08,13.72,46.00,1016.75,2014.00,3343.27,3027.00,3465.02,600.42,588.32,17.78,0000 0000 0000 0000 000000
2018-08-02 07:46:27,0.00,0.17,0.00,27.06,30.55,33.09,13.66,45.87,1016.89,2013.99,3343.02,3027.00,3465.00,599.65,587.78,17.84,0000 0000 0000 0000 000000
2018-08-02 07:51:28,0.00,0.17,0.00,27.09,30.57,33.12,13.68,45.78,1017.08,2013.99,3343.00,3026.98,3464.94,599.92,588.10,17.88,0000 0000 0000 0000 000000
2018-08-02 07:56:30,0.01,0.17,0.00,27.10,30.59,33.13,13.73,46.03,1017.10,2013.97,3342.98,3026.76,3464.53,600.04,588.05,17.93,0000 0000 0000 0000 000000
2018-08-02 08:01:31,0.01,0.17,0.00,27.12,30.60,33.15,13.77,46.01,1017.10,2013.86,3342.57,3026.17,3464.05,600.21,588.31,17.98,0000 0000 0000 0000 000000
2018-08-02 08:06:32,-0.01,0.17,0.00,27.12,30.62,33.16,13.63,45.90,1017.11,2013.62,3342.18,3026.02,3464.00,599.70,587.86,18.03,0000 0000 0000 0000 000000
2018-08-02 08:11:33,-0.03,0.17,0.00,27.13,30.65,33.20,13.69,45.92,1017.11,2013.45,3342.04,3026.00,3464.00,599.94,588.06,18.09,0000 0000 0000 0000 000000
2018-08-02 08:16:34,-0.01,0.17,0.00,27.15,30.65,33.22,13.71,45.98,1017.11,2013.10,3342.00,3025.99,3463.75,600.01,588.06,18.14,0000 0000 0000 0000 000000
2018-08-02 08:21:35,0.00,0.17,0.00,27.15,30.67,33.25,13.72,45.96,1017.12,2013.03,3341.97,3025.97,3463.18,600.34,588.51,18.19,0000 0000 0000 0000 000000
2018-08-02 08:26:36,0.02,0.17,0.00,27.17,30.69,33.26,13.71,46.02,1017.11,2013.04,3341.72,3025.73,3463.01,599.93,588.01,18.24,0000 0000 0000 0000 000000
2018-08-02 08:31:37,0.02,0.17,0.00,27.17,30.70,33.30,13.69,45.93,1017.12,2013.01,3341.02,3025.02,3462.81,599.94,587.99,18.29,0000 0000 0000 0000 000000
2018-08-02 08:36:39,0.00,0.17,0.00,27.17,30.72,33.31,13.68,45.89,1017.12,2013.00,3341.00,3025.00,3462.29,600.07,588.18,18.34,0000 0000 0000 0000 000000
2018-08-02 08:41:40,0.00,0.17,0.00,27.18,30.73,33.33,13.73,45.98,1017.14,2013.00,3340.98,3025.00,3462.05,599.97,587.89,18.39,0000 0000 0000 0000 000000
2018-08-02 08:46:42,0.00,0.18,0.00,27.19,30.75,33.35,13.66,45.85,1017.16,2013.00,3340.71,3024.97,3462.00,599.81,587.87,18.44,0000 0000 0000 0000 000000
2018-08-02 08:51:43,0.01,0.18,0.00,27.20,30.76,33.35,13.65,45.89,1017.22,2012.99,3340.11,3024.85,3461.98,600.15,588.28,18.49,0000 0000 0000 0000 000000
2018-08-02 08:56:44,0.01,0.18,0.00,27.20,30.77,33.36,13.70,45.88,1017.25,2012.99,3340.01,3024.48,3461.96,600.21,588.26,18.54,0000 0000 0000 0000 000000
2018-08-02 09:01:45,0.01,0.18,0.00,27.21,30.79,33.38,13.74,45.98,1017.24,2012.97,3340.00,3024.20,3461.80,599.96,588.11,18.59,0000 0000 0000 0000 000000
2018-08-02 09:06:47,0.01,0.18,0.00,27.22,30.80,33.39,13.73,46.02,1017.26,2012.96,3340.00,3024.11,3461.39,599.86,588.00,18.64,0000 0000 0000 0000 000000
2018-08-02 09:11:48,-0.00,0.18,0.00,27.21,30.81,33.43,13.75,46.10,1017.38,2012.94,3339.89,3024.02,3461.04,600.11,588.22,18.69,0000 0000 0000 0000 000000
2018-08-02 09:16:49,0.01,0.18,0.00,27.22,30.82,33.45,13.70,46.06,1017.57,2012.90,3339.44,3024.00,3461.01,599.83,588.02,18.74,0000 0000 0000 0000 000000
2018-08-02 09:21:50,-0.00,0.18,0.00,27.21,30.83,33.47,13.70,45.95,1017.59,2012.86,3339.04,3024.00,3461.00,599.89,588.15,18.79,0000 0000 0000 0000 000000
2018-08-02 09:26:52,-0.03,0.18,0.00,27.22,30.85,33.50,13.67,45.96,1017.59,2012.55,3339.00,3024.00,3460.98,600.16,588.33,18.84,0000 0000 0000 0000 000000
2018-08-02 09:31:53,-0.02,0.18,0.00,27.22,30.85,33.50,13.65,45.97,1017.59,2012.18,3339.00,3023.96,3460.71,600.04,588.26,18.89,0000 0000 0000 0000 000000
2018-08-02 09:36:54,-0.00,0.18,0.00,27.22,30.87,33.54,13.74,45.90,1017.59,2012.06,3338.96,3023.85,3460.20,599.92,588.02,18.94,0000 0000 0000 0000 000000
2018-08-02 09:41:55,0.01,0.18,0.00,27.22,30.87,33.55,13.73,45.98,1017.59,2012.04,3338.81,3023.68,3460.08,599.93,587.90,18.99,0000 0000 0000 0000 000000
2018-08-02 09:46:56,0.02,0.18,0.00,27.22,30.88,33.57,13.73,46.02,1017.59,2012.02,3338.22,3023.28,3460.01,599.93,588.19,19.04,0000 0000 0000 0000 000000
2018-08-02 09:51:58,0.00,0.18,0.00,27.23,30.90,33.59,13.76,45.99,1017.59,2012.01,3338.01,3023.07,3460.00,600.09,588.21,19.09,0000 0000 0000 0000 000000
2018-08-02 09:56:59,0.00,0.18,0.00,27.22,30.90,33.68,13.78,46.01,1017.59,2012.01,3338.00,3023.05,3460.00,600.17,588.30,19.14,0000 0000 0000 0000 000000
2018-08-02 10:02:00,0.00,0.18,0.00,27.23,30.90,33.67,13.79,46.08,1017.59,2012.00,3338.00,3023.01,3459.98,600.24,588.49,19.19,0000 0000 0000 0000 000000
2018-08-02 10:07:02,0.20,0.18,0.00,27.25,30.92,33.77,13.73,46.01,1017.59,2012.00,3335.92,3020.82,3457.09,599.86,588.02,19.24,0000 0000 0000 0000 000000
2018-08-02 10:12:03,0.04,0.19,0.00,27.23,30.92,33.70,13.65,46.02,1017.60,2012.00,3334.09,3019.03,3455.03,599.81,587.94,19.29,0000 0000 0000 0000 000000
2018-08-02 10:17:04,0.00,0.19,0.00,27.22,30.92,33.71,13.71,46.13,1017.61,2012.00,3334.00,3019.00,3455.00,599.85,588.16,19.34,0000 0000 0000 0000 000000
2018-08-02 10:22:06,0.00,0.19,0.00,27.22,30.93,33.75,13.74,46.01,1017.65,2012.00,3334.00,3018.99,3454.99,599.98,588.24,19.39,0000 0000 0000 0000 000000
2018-08-02 10:27:07,0.00,0.19,0.00,27.22,30.95,33.76,13.77,46.04,1017.80,2012.00,3334.00,3018.99,3454.98,599.88,588.24,19.44,0000 0000 0000 0000 000000
2018-08-02 10:32:08,0.00,0.19,0.00,27.24,30.95,33.82,13.73,46.03,1017.93,2012.00,3333.99,3018.98,3454.97,600.12,588.51,19.49,0000 0000 0000 0000 000000
2018-08-02 10:37:10,0.00,0.19,0.00,27.22,30.95,33.79,13.76,46.14,1017.94,2012.00,3333.96,3018.98,3454.88,600.01,588.47,19.54,0000 0000 0000 0000 000000
2018-08-02 10:42:11,0.01,0.19,0.00,27.22,30.95,33.79,13.76,46.23,1018.03,2012.00,3333.56,3018.93,3454.33,599.74,588.28,19.59,0000 0000 0000 0000 000000
2018-08-02 10:47:12,0.01,0.19,0.00,27.22,30.96,33.83,13.74,46.12,1018.07,2011.99,3333.24,3018.85,3454.09,600.10,588.65,19.64,0000 0000 0000 0000 000000
2018-08-02 10:52:13,0.00,0.19,0.00,27.22,30.97,33.86,13.75,46.17,1018.01,2011.99,3333.09,3018.71,3454.04,600.00,588.47,19.69,0000 0000 0000 0000 000000
2018-08-02 10:57:15,0.00,0.19,0.00,27.21,30.97,33.86,13.68,46.21,1018.03,2011.99,3333.04,3018.70,3454.03,599.87,588.34,19.74,0000 0000 0000 0000 000000
2018-08-02 11:02:17,0.00,0.19,0.00,27.20,30.97,33.88,13.75,46.18,1018.06,2011.99,3333.00,3018.62,3454.01,600.07,588.51,19.79,0000 0000 0000 0000 000000
2018-08-02 11:07:18,0.00,0.19,0.00,27.20,30.97,33.90,13.73,46.17,1018.08,2011.99,3333.00,3018.59,3454.00,600.03,588.59,19.84,0000 0000 0000 0000 000000
2018-08-02 11:12:19,0.01,0.19,0.00,27.20,30.97,33.88,13.79,46.22,1018.08,2011.99,3333.00,3018.40,3454.00,600.00,588.65,19.89,0000 0000 0000 0000 000000
2018-08-02 11:17:21,0.01,0.19,0.00,27.17,30.97,33.92,13.75,46.21,1018.08,2011.99,3332.97,3018.14,3454.00,600.06,588.64,19.94,0000 0000 0000 0000 000000
2018-08-02 11:22:22,-0.00,0.19,0.00,27.17,30.97,33.91,13.74,46.09,1018.08,2011.99,3332.94,3018.10,3453.98,599.85,588.57,19.99,0000 0000 0000 0000 000000
2018-08-02 11:27:23,0.00,0.19,0.00,27.17,30.97,33.91,13.78,46.01,1018.09,2011.99,3332.95,3018.08,3453.99,599.95,588.59,20.04,0000 0000 0000 0000 000000
2018-08-02 11:32:25,-0.00,0.19,0.00,27.17,30.97,33.90,13.76,46.02,1018.09,2011.99,3332.96,3018.19,3453.99,600.23,588.67,20.09,0000 0000 0000 0000 000000
2018-08-02 11:37:26,0.00,0.19,0.00,27.16,30.97,33.93,13.76,46.01,1018.12,2011.99,3332.73,3018.10,3453.97,600.06,588.65,20.14,0000 0000 0000 0000 000000
2018-08-02 11:42:27,0.01,0.19,0.00,27.15,30.97,33.93,13.70,46.08,1018.25,2011.99,3332.43,3018.05,3453.93,599.71,588.54,20.19,0000 0000 0000 0000 000000
2018-08-02 11:47:28,-0.00,0.19,0.00,27.15,30.97,33.92,13.72,46.14,1018.25,2011.99,3332.34,3018.06,3453.95,599.71,588.46,20.24,0000 0000 0000 0000 000000
2018-08-02 11:52:30,-0.00,0.19,0.00,27.13,30.97,33.89,13.80,46.09,1018.45,2011.99,3332.50,3018.12,3453.98,600.07,588.97,20.29,0000 0000 0000 0000 000000
2018-08-02 11:57:31,0.00,0.19,0.00,27.13,30.97,33.93,13.81,46.23,1018.50,2011.99,3332.32,3018.12,3453.97,600.14,588.97,20.34,0000 0000 0000 0000 000000
2018-08-02 12:02:32,-0.00,0.19,0.00,27.12,30.97,33.93,13.84,46.17,1018.41,2011.99,3332.26,3018.10,3453.95,600.09,588.93,20.39,0000 0000 0000 0000 000000
2018-08-02 12:07:33,0.01,0.19,0.00,27.12,30.97,33.91,13.77,46.13,1018.39,2011.99,3332.17,3018.12,3453.93,600.07,589.04,20.44,0000 0000 0000 0000 000000
2018-08-02 12:12:35,0.00,0.19,0.00,27.10,30.97,33.90,13.75,46.08,1018.40,2011.99,3332.11,3018.11,3453.93,599.93,588.66,20.49,0000 0000 0000 0000 000000
2018-08-02 12:17:36,-0.00,0.19,0.00,27.10,30.95,33.91,13.72,46.16,1018.45,2011.99,3332.10,3018.21,3453.95,599.84,588.70,20.54,0000 0000 0000 0000 000000
2018-08-02 12:22:37,-0.00,0.19,0.00,27.08,30.95,33.92,13.78,46.31,1018.42,2011.99,3332.07,3018.22,3453.97,599.91,588.80,20.59,0000 0000 0000 0000 000000
2018-08-02 12:27:38,0.00,0.19,0.00,27.07,30.95,33.93,13.82,46.27,1018.44,2012.00,3332.08,3018.32,3453.97,600.19,589.25,20.64,0000 0000 0000 0000 000000
2018-08-02 12:32:39,-0.00,0.19,0.00,27.06,30.95,33.91,13.67,46.18,1018.51,2012.00,3332.07,3018.36,3453.95,599.27,588.46,20.69,0000 0000 0000 0000 000000
2018-08-02 12:37:41,0.00,0.19,0.00,27.05,30.95,33.92,13.80,46.16,1018.53,2012.00,3332.02,3018.16,3453.92,599.86,588.96,20.74,0000 0000 0000 0000 000000
2018-08-02 12:42:42,-0.00,0.19,0.00,27.05,30.95,33.93,13.73,46.10,1018.57,2012.00,3332.05,3018.31,3453.96,599.63,588.78,20.79,0000 0000 0000 0000 000000
2018-08-02 12:47:43,0.00,0.19,0.00,27.04,30.94,33.91,13.77,46.12,1018.56,2012.00,3332.05,3018.32,3453.93,600.22,589.36,20.84,0000 0000 0000 0000 000000
2018-08-02 12:52:44,-0.00,0.19,0.00,27.02,30.92,33.90,13.76,46.21,1018.57,2012.00,3332.03,3018.42,3453.94,599.74,588.96,20.89,0000 0000 0000 0000 000000
2018-08-02 12:57:45,-0.00,0.19,0.00,27.00,30.92,33.89,13.78,46.11,1018.57,2012.00,3332.06,3018.46,3453.93,600.00,589.28,20.94,0000 0000 0000 0000 000000